Location: Rotheul
(50.2849°N, 11.2349°E)
Time: 05:58:12
(UTC+02:00)

ISS - Pass Details

Date: 22 September 2018
Orbit: 403 x 408 km, 51.6° (Epoch: 25 September)

Event Time Altitude Azimuth Distance (km) Brightness Sun altitude
Rises 20:24:35 0° 201° (SSW) 2,321 0.1 -12.1°
Reaches altitude 10° 20:27:16 10° 177° (S) 1,465 -1.2 -12.5°
Enters shadow 20:28:49 15° 149° (SSE) 1,203 -1.9 -12.7°
